When you browse on this site, cookies collect data to enhance your experience and personalize the content and advertising you see.
Visit our Privacy Policy to learn more. By continuing to use the site, you agree to this use of cookies and data.
  • en Suisse
  • Liste des pays
  • À 7 jours
  • Température de l'eau
  • Carte météo
  • Widgets météo
  • user-avatar
    Se connecter

    Météo par heure à Oranienburg

    Ce jour, 3 Juin, Mercredi

    Heure Température Précipitation Vent Pression Humidité
    00:00 +15°C° 0 mm 2 m/s 755 mmHg 89%
    01:00 +14°C° 0 mm 2 m/s 754 mmHg 91%
    02:00 +13°C° 0 mm 1 m/s 754 mmHg 89%
    03:00 +12°C° 0 mm 1 m/s 753 mmHg 86%
    04:00 +12°C° 0 mm 1 m/s 753 mmHg 83%
    05:00 +13°C° 0 mm 1 m/s 753 mmHg 75%
    06:00 +15°C° 0 mm 1 m/s 753 mmHg 66%
    07:00 +16°C° 0 mm 2 m/s 753 mmHg 58%
    08:00 +18°C° 0 mm 2 m/s 753 mmHg 53%
    09:00 +19°C° 0 mm 2 m/s 752 mmHg 48%
    10:00 +21°C° 0 mm 2 m/s 752 mmHg 43%
    11:00 +23°C° 0 mm 2 m/s 752 mmHg 41%
    12:00 +24°C° 0 mm 3 m/s 751 mmHg 39%
    13:00 +24°C° 0 mm 3 m/s 751 mmHg 37%
    14:00 +24°C° 0 mm 3 m/s 750 mmHg 37%
    15:00 +24°C° 0 mm 3 m/s 750 mmHg 38%
    16:00 +24°C° 0 mm 3 m/s 749 mmHg 38%
    17:00 +22°C° 0 mm 3 m/s 749 mmHg 43%
    18:00 +21°C° 0 mm 3 m/s 749 mmHg 49%
    19:00 +19°C° 0 mm 3 m/s 749 mmHg 54%
    20:00 +18°C° 0 mm 3 m/s 749 mmHg 58%
    21:00 +17°C° 0 mm 3 m/s 748 mmHg 62%
    22:00 +14°C° 0 mm 3 m/s 748 mmHg 66%
    23:00 +14°C° 0 mm 3 m/s 748 mmHg 68%

    Demain, 4 Juin, Jeudi

    Heure Température Précipitation Vent Pression Humidité
    00:00 +13°C° 0 mm 3 m/s 748 mmHg 71%
    01:00 +12°C° 0 mm 3 m/s 747 mmHg 73%
    02:00 +12°C° 0 mm 3 m/s 747 mmHg 72%
    03:00 +12°C° 0 mm 3 m/s 746 mmHg 71%
    04:00 +12°C° 0 mm 4 m/s 746 mmHg 69%
    05:00 +13°C° 0 mm 4 m/s 746 mmHg 66%
    06:00 +14°C° 0 mm 5 m/s 745 mmHg 62%
    07:00 +15°C° 0 mm 5 m/s 745 mmHg 58%
    08:00 +16°C° 0 mm 5 m/s 745 mmHg 54%
    09:00 +19°C° 0 mm 6 m/s 744 mmHg 49%
    10:00 +20°C° 0 mm 6 m/s 744 mmHg 45%
    11:00 +20°C° 0 mm 5 m/s 744 mmHg 46%
    12:00 +20°C° 0 mm 5 m/s 743 mmHg 47%
    13:00 +21°C° 0 mm 5 m/s 743 mmHg 48%
    14:00 +20°C° 0.2 mm 4 m/s 742 mmHg 56%
    15:00 +19°C° 0.2 mm 4 m/s 742 mmHg 64%
    16:00 +18°C° 0.2 mm 3 m/s 741 mmHg 71%
    17:00 +18°C° 0.2 mm 4 m/s 741 mmHg 74%
    18:00 +18°C° 0.2 mm 4 m/s 740 mmHg 77%
    19:00 +18°C° 0.2 mm 4 m/s 740 mmHg 79%
    20:00 +17°C° 1.2 mm 4 m/s 740 mmHg 84%
    21:00 +17°C° 1.2 mm 3 m/s 740 mmHg 88%
    22:00 +16°C° 1.2 mm 3 m/s 740 mmHg 93%
    23:00 +16°C° 0.7 mm 3 m/s 740 mmHg 93%

    Après-demain, 5 Juin, Vendredi

    Heure Température Précipitation Vent Pression Humidité
    00:00 +14°C° 0.7 mm 4 m/s 740 mmHg 93%
    01:00 +13°C° 0.7 mm 5 m/s 740 mmHg 92%
    02:00 +12°C° 0 mm 5 m/s 740 mmHg 92%
    03:00 +11°C° 0 mm 4 m/s 740 mmHg 92%
    04:00 +10°C° 0 mm 4 m/s 740 mmHg 92%
    05:00 +10°C° 0 mm 5 m/s 741 mmHg 89%
    06:00 +10°C° 0 mm 5 m/s 741 mmHg 86%
    07:00 +10°C° 0 mm 5 m/s 742 mmHg 83%
    08:00 +12°C° 0 mm 5 m/s 742 mmHg 77%
    09:00 +12°C° 0 mm 5 m/s 743 mmHg 71%
    10:00 +13°C° 0 mm 4 m/s 743 mmHg 65%
    11:00 +14°C° 0 mm 4 m/s 743 mmHg 59%
    12:00 +17°C° 0 mm 4 m/s 743 mmHg 52%
    13:00 +18°C° 0 mm 4 m/s 743 mmHg 45%
    14:00 +18°C° 0 mm 4 m/s 743 mmHg 46%
    15:00 +18°C° 0 mm 3 m/s 743 mmHg 46%
    16:00 +18°C° 0 mm 3 m/s 743 mmHg 47%
    17:00 +17°C° 0 mm 3 m/s 742 mmHg 51%
    18:00 +17°C° 0 mm 3 m/s 742 mmHg 55%
    19:00 +16°C° 0 mm 3 m/s 742 mmHg 59%
    20:00 +14°C° 0.2 mm 3 m/s 742 mmHg 67%
    21:00 +13°C° 0.2 mm 4 m/s 742 mmHg 74%
    22:00 +10°C° 0.2 mm 5 m/s 742 mmHg 82%
    23:00 +10°C° 0.7 mm 5 m/s 742 mmHg 84%

    6 Juin, Samedi

    Heure Température Précipitation Vent Pression Humidité
    00:00 +9°C° 0.7 mm 5 m/s 742 mmHg 86%
    01:00 +9°C° 0.7 mm 5 m/s 742 mmHg 89%
    02:00 +8°C° 0 mm 5 m/s 742 mmHg 89%
    03:00 +7°C° 0 mm 4 m/s 743 mmHg 89%
    04:00 +7°C° 0 mm 4 m/s 743 mmHg 90%
    05:00 +8°C° 0 mm 4 m/s 744 mmHg 85%
    06:00 +8°C° 0 mm 4 m/s 744 mmHg 81%
    07:00 +9°C° 0 mm 5 m/s 744 mmHg 77%
    08:00 +10°C° 0.3 mm 5 m/s 745 mmHg 72%
    09:00 +13°C° 0.3 mm 6 m/s 745 mmHg 67%
    10:00 +14°C° 0.3 mm 6 m/s 745 mmHg 61%
    11:00 +14°C° 0.5 mm 6 m/s 745 mmHg 58%
    12:00 +15°C° 0.5 mm 7 m/s 745 mmHg 55%
    13:00 +16°C° 0.5 mm 7 m/s 745 mmHg 52%
    14:00 +16°C° 0.2 mm 7 m/s 746 mmHg 52%
    15:00 +16°C° 0.2 mm 6 m/s 746 mmHg 52%
    16:00 +16°C° 0.2 mm 6 m/s 746 mmHg 52%
    17:00 +16°C° 0.1 mm 5 m/s 746 mmHg 55%
    18:00 +15°C° 0.1 mm 4 m/s 747 mmHg 59%
    19:00 +16°C° 0.1 mm 3 m/s 747 mmHg 62%
    20:00 +13°C° 0 mm 3 m/s 747 mmHg 67%
    21:00 +12°C° 0 mm 3 m/s 748 mmHg 71%
    22:00 +11°C° 0 mm 3 m/s 748 mmHg 76%
    23:00 +11°C° 0 mm 3 m/s 748 mmHg 79%

    7 Juin, Dimanche

    Heure Température Précipitation Vent Pression Humidité
    00:00 +10°C° 0 mm 3 m/s 748 mmHg 81%
    01:00 +10°C° 0 mm 3 m/s 748 mmHg 84%
    02:00 +10°C° 0 mm 3 m/s 748 mmHg 86%
    03:00 +10°C° 0 mm 3 m/s 749 mmHg 88%
    04:00 +10°C° 0 mm 3 m/s 749 mmHg 90%
    05:00 +11°C° 0 mm 3 m/s 749 mmHg 84%
    06:00 +12°C° 0 mm 3 m/s 749 mmHg 78%
    07:00 +14°C° 0 mm 4 m/s 750 mmHg 71%
    08:00 +15°C° 0 mm 4 m/s 750 mmHg 62%
    09:00 +16°C° 0 mm 5 m/s 750 mmHg 52%
    10:00 +17°C° 0 mm 6 m/s 751 mmHg 42%
    11:00 +19°C° 0 mm 6 m/s 751 mmHg 43%
    12:00 +19°C° 0 mm 5 m/s 751 mmHg 43%
    13:00 +20°C° 0 mm 5 m/s 751 mmHg 44%
    14:00 +19°C° 0.2 mm 5 m/s 751 mmHg 47%
    15:00 +19°C° 0.2 mm 6 m/s 751 mmHg 51%
    16:00 +17°C° 0.2 mm 6 m/s 751 mmHg 55%
    17:00 +17°C° 0.1 mm 5 m/s 752 mmHg 57%
    18:00 +17°C° 0.1 mm 4 m/s 752 mmHg 60%
    19:00 +17°C° 0.1 mm 2 m/s 752 mmHg 63%
    20:00 +15°C° 0 mm 2 m/s 753 mmHg 67%
    21:00 +14°C° 0 mm 2 m/s 753 mmHg 71%
    22:00 +12°C° 0 mm 2 m/s 754 mmHg 75%
    23:00 +12°C° 0 mm 2 m/s 754 mmHg 77%

    8 Juin, Lundi

    Heure Température Précipitation Vent Pression Humidité
    00:00 +12°C° 0 mm 2 m/s 754 mmHg 78%
    01:00 +10°C° 0 mm 3 m/s 754 mmHg 80%
    02:00 +10°C° 0 mm 2 m/s 754 mmHg 80%
    03:00 +9°C° 0 mm 2 m/s 754 mmHg 79%
    04:00 +9°C° 0 mm 2 m/s 754 mmHg 79%
    05:00 +11°C° 0 mm 3 m/s 754 mmHg 74%
    06:00 +12°C° 0 mm 3 m/s 754 mmHg 69%
    07:00 +13°C° 0 mm 3 m/s 755 mmHg 65%
    08:00 +16°C° 0 mm 3 m/s 755 mmHg 60%
    09:00 +18°C° 0 mm 3 m/s 755 mmHg 54%
    10:00 +19°C° 0 mm 3 m/s 755 mmHg 49%
    11:00 +20°C° 0 mm 4 m/s 755 mmHg 47%
    12:00 +21°C° 0 mm 4 m/s 755 mmHg 45%
    13:00 +21°C° 0 mm 4 m/s 755 mmHg 42%
    14:00 +21°C° 0 mm 4 m/s 754 mmHg 44%
    15:00 +21°C° 0 mm 4 m/s 754 mmHg 45%
    16:00 +21°C° 0 mm 4 m/s 754 mmHg 46%
    17:00 +20°C° 0.1 mm 3 m/s 754 mmHg 52%
    18:00 +19°C° 0.1 mm 3 m/s 754 mmHg 58%
    19:00 +18°C° 0.1 mm 2 m/s 754 mmHg 65%
    20:00 +17°C° 0 mm 2 m/s 754 mmHg 67%
    21:00 +16°C° 0 mm 2 m/s 755 mmHg 70%
    22:00 +14°C° 0 mm 2 m/s 755 mmHg 73%
    23:00 +14°C° 0 mm 2 m/s 755 mmHg 77%
    Voir plus